Location: La Comballaz
(46.3780°N, 7.0817°E)
Time: 23:33:50
(UTC+00:00)

X-37B - Pass Details

Date: 14 December 2021
Orbit: 334 x 337 km, 45.0° (Epoch: 11 January)

Event Time Altitude Azimuth Distance (km) Brightness Sun altitude
Rises 18:00:05 0° 275° (W) 2,106 5.6 -22.2°
Reaches altitude 10° 18:02:07 10° 269° (W) 1,268 4.3 -22.6°
Enters shadow 18:03:48 29° 249° (WSW) 655 2.4 -22.8°
